User: anonymous   Login
Location: Waning Moon II Observatory
(30.3730°N, 89.7620°W)
Time: 19:11:21
(UTC-06:00)
Language:

Meteor 1-21 - Orbit

View from above orbital plane
View from above orbital plane
View from above satellite
View from above satellite

Ground track
Ground track

The orbit data is extracted from the following two-line orbital elements,

1 07714U 75023A   17023.39276199  .00000184  00000-0  10070-3 0  9999
2 07714  81.2134 332.6443 0031045 310.1035  49.7414 14.07956003464818
Epoch (UTC): 23 January 2017 09:25:34
Eccentricity: 0.0031045
inclination: 81.2134°
perigee height: 844 km
apogee height: 889 km
right ascension of ascending node: 332.6443°
argument of perigee: 310.1035°
revolutions per day: 14.07956003
mean anomaly at epoch: 49.7414°
orbit number at epoch: 46481

The dashed part of the orbit path shows where the satellite is in the earth's shadow,  

DLR